GFSNE_500_temp_183.txt.gz
Temp
-18 -18 -18 -18 -18 -18 -18 -18 -18 -18 -19 -19 -19 -21 -21 -21 -20 -20 -20 -19 -18 -17 -17 -16 -16 -15 -15 -15 -15 -15 -14 -14 -14 -14 -14 -15 -14 -14
-19 -19 -19 -19 -20 -20 -20 -20 -20 -19 -19 -21 -21 -21 -21 -21 -21 -21 -21 -21 -20 -20 -19 -18 -17 -16 -16 -15 -15 -15 -15 -14 -14 -14 -14 -15 -15 -15
-20 -20 -20 -21 -21 -21 -21 -22 -22 -22 -21 -21 -21 -21 -21 -21 -21 -22 -22 -21 -21 -21 -20 -20 -19 -18 -17 -16 -15 -15 -15 -15 -15 -14 -14 -15 -15 -15
-20 -20 -21 -21 -21 -22 -23 -23 -23 -23 -22 -22 -22 -22 -22 -22 -21 -21 -21 -21 -21 -21 -21 -21 -20 -20 -19 -18 -17 -16 -15 -15 -15 -15 -15 -15 -15 -15
-21 -22 -22 -22 -23 -23 -23 -23 -23 -23 -23 -23 -23 -23 -22 -22 -22 -21 -21 -21 -22 -21 -21 -21 -20 -20 -20 -19 -18 -17 -16 -16 -16 -16 -15 -15 -15 -15
-22 -22 -22 -24 -24 -24 -24 -24 -24 -24 -23 -23 -23 -23 -23 -22 -22 -22 -22 -22 -22 -23 -23 -22 -21 -21 -20 -19 -19 -18 -18 -17 -16 -16 -16 -16 -15 -15
-22 -23 -24 -24 -24 -24 -24 -24 -24 -24 -24 -23 -23 -23 -23 -23 -23 -23 -23 -23 -24 -25 -25 -24 -23 -22 -21 -20 -20 -19 -18 -18 -17 -17 -17 -16 -16 -16
-23 -24 -24 -25 -25 -25 -25 -24 -24 -24 -24 -24 -23 -23 -24 -23 -23 -23 -24 -25 -26 -25 -25 -24 -24 -24 -23 -23 -23 -22 -20 -19 -18 -18 -17 -17 -16 -16
-25 -25 -25 -25 -25 -25 -25 -25 -25 -25 -24 -24 -24 -24 -24 -24 -24 -25 -26 -26 -26 -26 -25 -25 -27 -25 -26 -26 -26 -25 -23 -21 -20 -19 -19 -18 -17 -17
-25 -25 -25 -25 -25 -25 -25 -25 -25 -25 -25 -25 -25 -25 -25 -25 -26 -27 -27 -27 -26 -26 -26 -27 -27 -27 -27 -28 -28 -27 -25 -23 -21 -21 -20 -19 -18 -18
-26 -26 -26 -25 -25 -25 -25 -25 -25 -25 -26 -26 -26 -26 -26 -26 -27 -27 -27 -27 -27 -27 -28 -28 -28 -28 -29 -30 -29 -28 -26 -24 -22 -21 -21 -20 -19 -18
-26 -26 -26 -26 -26 -26 -25 -25 -25 -26 -26 -26 -26 -26 -27 -27 -28 -28 -28 -27 -27 -27 -28 -29 -29 -29 -29 -30 -29 -29 -26 -24 -22 -22 -21 -20 -19 -18
-26 -26 -26 -26 -26 -26 -25 -25 -26 -26 -26 -26 -26 -26 -27 -28 -29 -29 -29 -28 -27 -27 -28 -29 -29 -29 -29 -29 -29 -28 -26 -24 -23 -22 -21 -21 -20 -19
-27 -26 -26 -26 -26 -26 -26 -26 -27 -26 -26 -26 -26 -27 -27 -29 -29 -29 -29 -28 -28 -27 -27 -28 -28 -28 -29 -29 -28 -29 -27 -24 -23 -22 -22 -21 -20 -19
-27 -26 -26 -26 -26 -27 -27 -27 -27 -27 -27 -27 -27 -28 -29 -30 -30 -29 -29 -29 -29 -28 -27 -27 -27 -27 -28 -28 -28 -27 -28 -25 -23 -23 -22 -21 -21 -20
-27 -27 -27 -27 -27 -28 -28 -28 -28 -28 -28 -29 -29 -30 -30 -30 -30 -30 -29 -29 -29 -29 -29 -27 -26 -26 -27 -27 -27 -27 -27 -26 -23 -23 -22 -22 -21 -20
-27 -28 -28 -28 -28 -29 -29 -29 -30 -30 -31 -31 -31 -31 -31 -31 -31 -30 -29 -29 -29 -28 -28 -28 -27 -26 -25 -26 -27 -27 -27 -26 -25 -22 -22 -21 -21 -20
-28 -28 -29 -29 -29 -30 -30 -31 -31 -32 -32 -32 -32 -32 -31 -31 -31 -30 -30 -29 -29 -28 -28 -27 -27 -27 -25 -25 -26 -26 -26 -26 -24 -23 -22 -21 -21 -20
-29 -29 -29 -29 -30 -31 -31 -31 -32 -32 -32 -32 -32 -32 -31 -31 -31 -30 -30 -29 -29 -29 -29 -28 -27 -26 -25 -25 -26 -25 -25 -26 -24 -23 -21 -21 -21 -20
-29 -29 -30 -30 -31 -31 -32 -32 -33 -32 -32 -32 -32 -32 -31 -31 -31 -30 -30 -29 -29 -29 -29 -28 -27 -26 -25 -24 -25 -27 -24 -25 -24 -22 -21 -20 -21 -21
-30 -30 -31 -31 -32 -32 -33 -33 -32 -32 -32 -32 -32 -32 -32 -31 -31 -31 -30 -30 -29 -29 -29 -29 -28 -27 -25 -24 -24 -25 -26 -23 -24 -22 -21 -21 -20 -20
-30 -31 -31 -31 -32 -32 -33 -32 -32 -32 -32 -32 -32 -32 -32 -31 -31 -31 -31 -30 -30 -30 -29 -29 -29 -28 -27 -24 -24 -24 -25 -24 -23 -21 -21 -21 -20 -20
-31 -31 -32 -32 -32 -33 -32 -32 -32 -32 -32 -32 -32 -32 -32 -32 -32 -32 -31 -31 -30 -30 -29 -29 -30 -29 -27 -26 -26 -26 -26 -24 -22 -22 -22 -21 -21 -21

GFSNE_500_temp_186.txt.gz
Temp
-18 -18 -18 -18 -18 -18 -17 -17 -17 -18 -18 -19 -20 -21 -21 -21 -20 -20 -20 -19 -19 -19 -19 -18 -17 -17 -16 -16 -16 -15 -16 -16 -15 -15 -15 -15 -15 -14
-18 -18 -18 -18 -18 -19 -20 -20 -20 -19 -20 -21 -22 -22 -22 -22 -22 -22 -22 -22 -21 -21 -21 -20 -20 -19 -18 -17 -16 -16 -15 -15 -15 -15 -15 -15 -15 -15
-19 -19 -19 -19 -20 -20 -20 -21 -21 -21 -21 -22 -23 -23 -23 -23 -23 -23 -23 -22 -22 -22 -22 -21 -21 -21 -20 -19 -18 -17 -17 -16 -15 -15 -15 -15 -15 -15
-20 -20 -20 -21 -21 -21 -21 -22 -22 -22 -22 -23 -23 -23 -23 -23 -23 -23 -22 -22 -22 -22 -21 -21 -21 -21 -21 -20 -20 -19 -18 -18 -17 -16 -16 -15 -15 -15
-21 -21 -22 -22 -22 -22 -22 -22 -23 -24 -24 -24 -24 -24 -23 -23 -23 -23 -23 -22 -22 -22 -22 -22 -22 -22 -21 -21 -21 -20 -19 -19 -18 -18 -17 -16 -15 -15
-22 -22 -22 -22 -22 -22 -23 -23 -24 -24 -24 -24 -24 -24 -24 -24 -23 -23 -23 -23 -22 -23 -23 -22 -22 -22 -22 -22 -21 -21 -20 -20 -19 -19 -18 -17 -16 -15
-22 -22 -22 -22 -23 -23 -23 -25 -25 -25 -25 -25 -25 -24 -24 -24 -24 -24 -23 -23 -23 -23 -23 -23 -23 -22 -22 -22 -23 -23 -22 -21 -19 -19 -19 -18 -18 -16
-22 -23 -23 -24 -24 -23 -25 -25 -25 -25 -25 -25 -25 -24 -24 -24 -24 -24 -24 -24 -24 -24 -24 -24 -24 -23 -24 -25 -25 -25 -24 -24 -22 -20 -19 -19 -18 -18
-23 -23 -24 -24 -24 -25 -25 -25 -25 -25 -25 -25 -25 -25 -25 -24 -24 -25 -25 -25 -25 -24 -24 -24 -25 -25 -26 -26 -25 -25 -25 -24 -23 -23 -20 -20 -19 -18
-23 -24 -24 -25 -25 -26 -26 -26 -26 -26 -26 -25 -25 -25 -25 -25 -25 -25 -25 -25 -25 -25 -25 -25 -27 -27 -27 -26 -26 -27 -27 -26 -25 -23 -22 -20 -20 -19
-24 -24 -25 -26 -26 -26 -26 -26 -26 -26 -26 -26 -26 -25 -26 -26 -26 -25 -26 -26 -25 -26 -26 -27 -28 -27 -27 -26 -27 -28 -27 -27 -26 -25 -23 -21 -20 -19
-24 -25 -26 -26 -26 -26 -26 -26 -26 -26 -26 -26 -27 -27 -27 -26 -26 -26 -26 -26 -26 -26 -28 -28 -28 -28 -27 -27 -28 -29 -29 -28 -28 -27 -26 -24 -23 -21
-26 -26 -27 -27 -27 -27 -27 -26 -26 -26 -26 -27 -27 -27 -27 -27 -27 -27 -27 -28 -28 -29 -30 -29 -28 -28 -28 -27 -28 -29 -29 -30 -30 -29 -28 -27 -26 -24
-27 -27 -27 -27 -27 -27 -27 -27 -27 -27 -27 -27 -27 -27 -27 -27 -28 -28 -30 -30 -31 -30 -30 -29 -29 -28 -28 -27 -28 -29 -29 -29 -29 -29 -29 -28 -28 -26
-27 -27 -27 -27 -27 -27 -27 -27 -27 -28 -28 -28 -28 -28 -29 -29 -30 -31 -31 -31 -31 -31 -30 -30 -29 -28 -28 -27 -27 -28 -28 -29 -29 -29 -29 -28 -27 -26
-28 -28 -28 -28 -28 -28 -28 -28 -28 -28 -29 -29 -29 -30 -31 -32 -32 -32 -31 -31 -31 -31 -31 -30 -29 -29 -28 -27 -27 -27 -27 -28 -28 -28 -28 -28 -26 -25
-28 -28 -28 -28 -28 -29 -29 -29 -29 -29 -30 -30 -31 -32 -32 -32 -32 -32 -31 -31 -31 -31 -30 -30 -30 -29 -28 -28 -27 -27 -27 -27 -28 -28 -28 -27 -25 -25
-28 -29 -29 -29 -29 -29 -29 -30 -30 -30 -31 -32 -32 -32 -32 -32 -32 -32 -31 -31 -31 -31 -30 -30 -29 -29 -29 -29 -28 -27 -26 -26 -27 -27 -27 -26 -24 -24
-29 -29 -29 -29 -30 -30 -30 -30 -31 -31 -31 -32 -32 -32 -31 -32 -31 -31 -31 -31 -31 -30 -31 -30 -29 -29 -28 -28 -30 -29 -26 -26 -26 -27 -27 -26 -24 -24
-29 -29 -29 -30 -30 -30 -31 -31 -31 -31 -32 -32 -32 -32 -31 -31 -31 -31 -31 -31 -31 -30 -31 -31 -30 -30 -29 -28 -27 -31 -28 -25 -26 -26 -26 -26 -24 -24
-29 -30 -30 -30 -30 -31 -31 -31 -31 -32 -32 -32 -32 -32 -32 -31 -32 -32 -31 -31 -31 -31 -31 -31 -31 -31 -30 -28 -28 -29 -30 -26 -25 -25 -26 -26 -24 -23
-30 -30 -30 -31 -31 -31 -32 -32 -32 -32 -32 -32 -32 -32 -32 -32 -32 -32 -32 -31 -31 -31 -31 -31 -31 -31 -30 -29 -28 -28 -29 -28 -25 -25 -25 -26 -24 -23
-30 -31 -31 -31 -31 -32 -32 -32 -33 -32 -32 -32 -32 -32 -32 -32 -32 -32 -32 -32 -32 -32 -32 -32 -32 -31 -31 -30 -29 -29 -28 -28 -27 -25 -24 -25 -24 -22

GFSNE_500_temp_189.txt.gz
Temp
-17 -18 -19 -18 -18 -18 -18 -18 -18 -19 -19 -19 -19 -19 -20 -20 -19 -20 -19 -20 -20 -20 -20 -20 -20 -19 -18 -18 -18 -17 -16 -16 -16 -16 -16 -16 -16 -15
-18 -19 -19 -19 -19 -18 -18 -19 -19 -19 -20 -20 -20 -20 -20 -21 -21 -21 -21 -22 -22 -22 -22 -22 -22 -22 -21 -21 -20 -20 -19 -18 -17 -17 -17 -16 -16 -16
-20 -20 -19 -19 -19 -19 -19 -20 -20 -20 -20 -21 -21 -21 -22 -22 -23 -23 -23 -23 -23 -23 -23 -23 -22 -22 -22 -22 -21 -21 -21 -20 -19 -18 -18 -17 -17 -16
-20 -19 -19 -19 -19 -20 -20 -20 -21 -21 -21 -21 -22 -22 -23 -24 -24 -24 -24 -24 -24 -24 -23 -23 -23 -22 -22 -22 -22 -21 -21 -21 -20 -20 -19 -18 -17 -17
-19 -19 -19 -20 -20 -20 -21 -21 -21 -21 -22 -22 -23 -24 -24 -24 -24 -24 -24 -24 -24 -24 -24 -24 -23 -23 -22 -22 -22 -21 -21 -21 -21 -20 -20 -20 -19 -18
-20 -19 -20 -20 -21 -21 -21 -21 -22 -22 -23 -23 -24 -25 -25 -25 -25 -24 -24 -24 -24 -24 -24 -24 -24 -23 -23 -23 -23 -22 -22 -22 -21 -21 -20 -20 -20 -20
-20 -21 -21 -21 -22 -22 -22 -22 -23 -23 -24 -25 -25 -25 -25 -25 -25 -25 -25 -25 -24 -24 -24 -24 -24 -24 -24 -23 -23 -23 -22 -22 -22 -21 -21 -21 -21 -20
-21 -21 -22 -22 -22 -22 -22 -23 -23 -25 -25 -26 -26 -25 -25 -25 -25 -25 -25 -25 -25 -25 -24 -24 -25 -24 -24 -24 -24 -24 -23 -23 -22 -22 -22 -21 -21 -21
-22 -22 -22 -22 -22 -23 -23 -24 -25 -26 -26 -26 -25 -26 -26 -26 -26 -26 -25 -25 -25 -25 -25 -25 -25 -24 -24 -24 -24 -25 -24 -24 -23 -23 -22 -22 -22 -21
-22 -23 -23 -23 -23 -24 -24 -25 -25 -26 -26 -26 -26 -26 -26 -26 -26 -26 -25 -25 -25 -25 -25 -25 -25 -25 -25 -25 -25 -25 -25 -25 -24 -24 -24 -25 -25 -24
-23 -23 -23 -24 -25 -25 -25 -26 -26 -26 -26 -26 -26 -26 -26 -26 -26 -26 -26 -26 -26 -26 -26 -26 -26 -25 -26 -26 -26 -27 -28 -28 -28 -27 -26 -26 -25 -25
-24 -23 -24 -25 -25 -25 -26 -26 -26 -27 -27 -27 -27 -27 -27 -27 -27 -27 -26 -26 -26 -26 -27 -27 -28 -28 -27 -29 -29 -30 -29 -29 -28 -28 -27 -26 -26 -26
-24 -24 -25 -25 -26 -26 -26 -26 -27 -27 -27 -27 -27 -27 -28 -28 -27 -27 -27 -28 -28 -30 -31 -31 -31 -31 -31 -30 -30 -29 -29 -29 -28 -28 -27 -26 -27 -27
-25 -25 -25 -26 -26 -27 -27 -27 -27 -27 -27 -28 -28 -28 -28 -28 -28 -28 -29 -30 -31 -31 -31 -31 -31 -31 -31 -30 -30 -29 -29 -29 -28 -28 -27 -27 -27 -28
-25 -26 -26 -27 -27 -27 -27 -28 -28 -28 -28 -28 -28 -28 -28 -28 -28 -29 -30 -30 -31 -31 -31 -31 -31 -31 -31 -30 -29 -29 -29 -28 -28 -28 -28 -27 -28 -28
-26 -27 -27 -27 -28 -28 -28 -28 -28 -28 -28 -28 -29 -29 -29 -29 -30 -30 -30 -31 -31 -31 -31 -31 -31 -31 -31 -30 -30 -29 -29 -28 -28 -28 -28 -27 -27 -28
-27 -27 -28 -28 -28 -29 -29 -29 -29 -29 -29 -29 -29 -29 -29 -30 -31 -31 -31 -31 -31 -31 -31 -31 -31 -31 -31 -30 -30 -30 -29 -29 -28 -28 -28 -28 -28 -28
-27 -28 -29 -29 -29 -29 -29 -29 -29 -29 -30 -30 -30 -30 -30 -31 -31 -31 -31 -31 -31 -31 -31 -31 -31 -30 -30 -30 -31 -31 -30 -30 -29 -28 -28 -27 -28 -27
-29 -29 -29 -29 -29 -29 -29 -29 -30 -30 -30 -31 -31 -31 -31 -32 -32 -32 -32 -32 -31 -31 -31 -31 -31 -31 -30 -29 -30 -32 -31 -30 -29 -28 -28 -28 -27 -28
-29 -29 -29 -29 -30 -30 -30 -30 -30 -31 -31 -31 -31 -31 -32 -32 -32 -32 -32 -32 -32 -31 -31 -32 -32 -31 -31 -30 -29 -30 -32 -31 -30 -28 -27 -28 -27 -27
-29 -29 -30 -30 -30 -30 -30 -30 -31 -31 -31 -32 -32 -32 -32 -32 -32 -32 -32 -32 -32 -32 -32 -32 -32 -32 -32 -31 -31 -31 -32 -32 -30 -28 -26 -27 -27 -27
-29 -30 -30 -30 -30 -30 -31 -31 -31 -32 -32 -32 -32 -33 -32 -33 -33 -32 -32 -32 -32 -32 -32 -32 -32 -32 -33 -32 -32 -32 -31 -31 -31 -30 -27 -26 -27 -26
-30 -30 -30 -30 -30 -31 -31 -31 -32 -32 -32 -33 -33 -33 -33 -33 -33 -33 -33 -33 -33 -33 -32 -32 -33 -33 -33 -33 -33 -32 -32 -31 -30 -30 -30 -25 -26 -26

GFSNE_500_temp_192.txt.gz
Temp
-16 -17 -17 -17 -18 -18 -18 -19 -19 -18 -18 -18 -18 -18 -18 -19 -19 -20 -20 -20 -20 -20 -20 -20 -20 -20 -20 -20 -20 -20 -20 -19 -18 -18 -18 -17 -17 -17
-17 -17 -18 -18 -18 -18 -19 -19 -19 -19 -18 -18 -18 -19 -19 -19 -20 -20 -20 -20 -20 -21 -21 -21 -22 -22 -22 -22 -23 -22 -21 -21 -21 -20 -20 -19 -18 -18
-17 -18 -18 -18 -19 -20 -20 -19 -19 -19 -19 -19 -19 -19 -20 -20 -21 -21 -21 -22 -22 -22 -23 -23 -23 -23 -23 -23 -23 -23 -23 -22 -22 -22 -21 -20 -20 -19
-18 -18 -18 -19 -20 -20 -20 -19 -19 -19 -19 -20 -20 -20 -21 -21 -21 -22 -22 -23 -23 -24 -24 -24 -24 -24 -24 -24 -23 -23 -23 -23 -22 -22 -22 -22 -21 -20
-18 -19 -19 -20 -21 -20 -20 -19 -19 -20 -20 -21 -21 -21 -21 -22 -22 -22 -23 -24 -24 -25 -25 -25 -25 -25 -24 -24 -24 -23 -23 -23 -22 -22 -22 -22 -22 -21
-19 -20 -20 -21 -21 -21 -20 -20 -20 -21 -21 -21 -21 -22 -22 -23 -23 -23 -24 -24 -25 -25 -25 -25 -25 -25 -25 -24 -24 -24 -24 -23 -23 -22 -22 -22 -22 -22
-20 -20 -21 -21 -21 -21 -21 -21 -21 -21 -21 -22 -22 -22 -23 -24 -24 -24 -24 -25 -26 -25 -25 -25 -25 -25 -25 -25 -24 -24 -24 -24 -23 -23 -23 -23 -22 -22
-20 -21 -21 -22 -22 -22 -22 -22 -22 -22 -22 -22 -23 -23 -24 -24 -25 -25 -26 -26 -26 -26 -25 -25 -25 -25 -25 -24 -24 -24 -24 -24 -24 -24 -23 -23 -23 -22
-21 -21 -22 -22 -22 -22 -22 -22 -22 -22 -23 -23 -24 -24 -25 -26 -26 -26 -26 -26 -26 -25 -25 -25 -25 -25 -25 -25 -24 -24 -24 -24 -24 -24 -24 -23 -23 -23
-22 -22 -22 -22 -23 -23 -23 -23 -23 -23 -24 -24 -25 -25 -26 -26 -26 -26 -26 -26 -26 -26 -26 -25 -25 -25 -25 -25 -25 -25 -25 -25 -25 -25 -25 -24 -24 -23
-22 -23 -23 -23 -23 -23 -23 -23 -24 -24 -24 -25 -25 -26 -26 -27 -27 -26 -26 -26 -26 -26 -26 -25 -26 -26 -25 -26 -27 -28 -29 -29 -29 -28 -27 -26 -25 -24
-23 -23 -23 -24 -23 -24 -24 -24 -24 -24 -25 -26 -26 -26 -26 -27 -27 -27 -27 -26 -26 -26 -27 -27 -27 -27 -26 -28 -30 -30 -31 -31 -31 -31 -31 -30 -29 -27
-23 -24 -24 -24 -24 -24 -24 -25 -25 -25 -26 -27 -27 -27 -27 -27 -27 -27 -27 -27 -27 -27 -27 -27 -28 -29 -29 -29 -30 -30 -30 -30 -30 -30 -30 -30 -30 -29
-24 -24 -25 -25 -25 -25 -25 -25 -26 -26 -27 -27 -27 -27 -27 -28 -28 -28 -28 -28 -28 -28 -29 -29 -30 -30 -30 -30 -30 -30 -30 -30 -30 -30 -30 -30 -29 -29
-25 -25 -25 -25 -25 -25 -26 -26 -26 -27 -27 -27 -27 -28 -28 -28 -28 -28 -29 -29 -28 -29 -30 -31 -31 -31 -31 -30 -30 -30 -30 -30 -30 -30 -29 -29 -29 -29
-25 -25 -25 -25 -25 -26 -26 -27 -28 -28 -28 -28 -28 -28 -28 -29 -29 -29 -29 -29 -29 -30 -31 -31 -32 -31 -31 -31 -31 -30 -30 -30 -30 -29 -29 -29 -29 -29
-25 -26 -26 -26 -26 -27 -27 -27 -28 -28 -28 -28 -28 -28 -29 -29 -30 -30 -30 -29 -30 -31 -31 -32 -32 -32 -32 -31 -31 -31 -31 -30 -30 -30 -29 -29 -29 -29
-26 -26 -26 -27 -27 -27 -28 -28 -28 -28 -29 -29 -29 -29 -30 -30 -30 -30 -30 -30 -31 -32 -32 -32 -32 -32 -32 -32 -32 -31 -31 -31 -30 -30 -30 -29 -29 -29
-26 -26 -27 -27 -27 -28 -28 -28 -29 -29 -29 -29 -30 -30 -30 -30 -31 -31 -31 -32 -32 -32 -32 -32 -32 -32 -31 -31 -31 -33 -31 -31 -30 -30 -30 -31 -30 -30
-26 -27 -27 -28 -28 -28 -28 -29 -29 -30 -30 -30 -30 -30 -31 -31 -32 -32 -32 -33 -32 -33 -32 -33 -33 -33 -32 -31 -30 -31 -33 -31 -31 -30 -31 -31 -31 -30
-27 -28 -28 -29 -29 -29 -29 -29 -30 -30 -30 -30 -31 -31 -32 -32 -32 -33 -33 -33 -33 -33 -33 -33 -33 -33 -32 -32 -31 -31 -32 -34 -33 -33 -32 -31 -29 -29
-28 -28 -29 -29 -29 -29 -30 -30 -30 -30 -31 -31 -31 -32 -32 -33 -33 -33 -33 -33 -33 -33 -33 -33 -33 -33 -33 -32 -31 -31 -32 -33 -34 -34 -34 -32 -28 -28
-29 -29 -29 -29 -30 -30 -30 -30 -31 -31 -31 -31 -32 -33 -33 -33 -34 -34 -34 -34 -34 -34 -33 -33 -33 -33 -33 -33 -33 -33 -33 -34 -33 -33 -34 -35 -30 -27